Weather History for Wadena, MN

Change the Weather History Date:

Sunday, February 24, 2013

  Actual Average Record
Temperature  
Mean Temperature 11 °F -  
Max Temperature 24 °F 27 °F 46 °F (1958)
Min Temperature -2 °F 4 °F -28 °F (1950)
Degree Days  
Heating Degree Days 54    
Moisture  
Dew Point 6 °F    
Average Humidity 85    
Maximum Humidity 100    
Minimum Humidity 69    
Precipitation  
Precipitation 0.00 in - - ()
Sea Level Pressure  
Sea Level Pressure 29.99 in    
Wind  
Wind Speed 1 mph (South)    
Max Wind Speed 6 mph    
Max Gust Speed -    
Visibility 5 miles    
Events Fog , Snow    
Averages and records for this station are not official NWS values.
T = Trace of Precipitation, MM = Missing Value Source: NWS Daily Summary

Daily Weather History Graph

Daily Weather History Graph

Search for Another Location

Airport:

Trip Planner

Search our weather history database for the weather conditions in past years. The results will help you decide how hot, cold, wet, or windy it might be!

Date:

Astronomy

Feb. 24, 2013 Rise Set
Actual Time 7:08 AM CST 6:00 PM CST
Civil Twilight 6:38 AM CST 6:30 PM CST
Nautical Twilight 6:03 AM CST 7:05 PM CST
Astronomical Twilight 5:28 AM CST 7:40 PM CST
Moon 5:12 PM CST (2/24) 6:07 AM CST (2/24)
Length of Visible Light 11h 52m
Length of Day
10h 51m
Waxing Gibbous, 99% of the Moon is Illuminated
Feb 24
Waxing Gibbous
Feb 25
Full
Mar 4
Last Quarter
Mar 11
New
Mar 19
First Quarter

Hourly Weather History & Observations

Time (CST) Temp. Windchill Dew Point Humidity Pressure Visibility Wind Dir Wind Speed Gust Speed Precip Events Conditions
12:15 AM 1.4 °F - -2.2 °F 85% 29.91 in 0.5 mi Calm Calm - N/A Fog Light Freezing Fog
12:34 AM 1.4 °F - -2.2 °F 85% 29.92 in 1.0 mi Calm Calm - N/A   Overcast
12:53 AM 1.4 °F -6.2 °F -2.2 °F 85% 29.92 in 1.0 mi West 3.5 mph - N/A   Overcast
1:15 AM -0.4 °F - -2.2 °F 92% 29.92 in 0.2 mi Calm Calm - N/A Fog Light Freezing Fog
1:34 AM 1.4 °F - -2.2 °F 85% 29.93 in 0.2 mi Calm Calm - N/A Fog Light Freezing Fog
1:53 AM -0.4 °F - -2.2 °F 92% 29.93 in 0.2 mi Calm Calm - N/A Fog Light Freezing Fog
2:15 AM 1.4 °F - -2.2 °F 85% 29.93 in 0.2 mi Calm Calm - N/A Fog Light Freezing Fog
2:35 AM 1.4 °F - -2.2 °F 85% 29.94 in 0.2 mi Calm Calm - N/A Fog Light Freezing Fog
2:53 AM 1.4 °F - -2.2 °F 85% 29.94 in 0.2 mi Calm Calm - N/A Fog Light Freezing Fog
3:14 AM 1.4 °F - -2.2 °F 85% 29.94 in 0.5 mi Calm Calm - N/A Fog Light Freezing Fog
3:35 AM 1.4 °F - -2.2 °F 85% 29.93 in 0.2 mi Calm Calm - N/A Fog Light Freezing Fog
3:53 AM -0.4 °F - -2.2 °F 92% 29.94 in 0.2 mi Calm Calm - N/A Fog Light Freezing Fog
4:14 AM -0.4 °F - -4.0 °F 85% 29.94 in 0.2 mi Calm Calm - N/A Fog Light Freezing Fog
4:35 AM -0.4 °F - -4.0 °F 85% 29.94 in 0.2 mi Calm Calm - N/A Fog Light Freezing Fog
4:53 AM -0.4 °F - -4.0 °F 85% 29.94 in 0.2 mi Calm Calm - N/A Fog Light Freezing Fog
5:15 AM -0.4 °F - -4.0 °F 85% 29.95 in 0.2 mi Calm Calm - N/A Fog Light Freezing Fog
5:35 AM -0.4 °F - -4.0 °F 85% 29.94 in 0.2 mi Calm Calm - N/A Fog Light Freezing Fog
5:52 AM -2.2 °F - -5.8 °F 85% 29.96 in 0.5 mi Calm Calm - N/A Fog Light Freezing Fog
6:15 AM -2.2 °F - -5.8 °F 85% 29.97 in 1.8 mi Calm Calm - N/A   Overcast
6:35 AM -2.2 °F - -5.8 °F 85% 29.98 in 2.5 mi Calm Calm - N/A   Overcast
6:52 AM -2.2 °F - -5.8 °F 85% 29.98 in 5.0 mi Calm Calm - N/A   Overcast
7:15 AM -0.4 °F - -4.0 °F 85% 29.98 in 0.2 mi Calm Calm - N/A Fog Light Freezing Fog
7:35 AM -2.2 °F - -5.8 °F 85% 29.99 in 0.2 mi Calm Calm - N/A Snow Light Snow
7:53 AM -0.4 °F - -4.0 °F 85% 29.99 in 0.2 mi Calm Calm - N/A Fog Light Freezing Fog
8:15 AM -0.4 °F - -4.0 °F 85% 30.00 in 0.2 mi Calm Calm - N/A Snow Light Snow
8:35 AM -0.4 °F - -2.2 °F 92% 29.99 in 0.2 mi Calm Calm - N/A Fog Light Freezing Fog
8:52 AM -0.4 °F - -2.2 °F 92% 29.99 in 0.2 mi Calm Calm - N/A Fog Light Freezing Fog
9:14 AM 1.4 °F - -0.4 °F 92% 30.00 in 0.2 mi Calm Calm - N/A Fog Light Freezing Fog
9:35 AM 3.2 °F - -0.4 °F 85% 30.01 in 1.2 mi Calm Calm - N/A   Overcast
9:53 AM 5.0 °F - 3.2 °F 92% 30.01 in 1.8 mi Calm Calm - N/A   Overcast
10:15 AM 6.8 °F - 5.0 °F 92% 30.01 in 0.8 mi Calm Calm - N/A   Overcast
10:35 AM 8.6 °F - 6.8 °F 92% 30.01 in 2.0 mi Calm Calm - N/A   Overcast
10:53 AM 10.4 °F - 8.6 °F 92% 30.02 in 3.0 mi Calm Calm - N/A   Overcast
11:15 AM 12.2 °F - 10.4 °F 92% 30.02 in 5.0 mi Calm Calm - N/A   Mostly Cloudy
11:34 AM 12.2 °F - 10.4 °F 92% 30.03 in 5.0 mi Calm Calm - N/A   Scattered Clouds
11:52 AM 12.2 °F - 10.4 °F 92% 30.03 in 5.0 mi Calm Calm - N/A   Clear
12:15 PM 14.0 °F - 12.2 °F 93% 30.03 in 7.0 mi Calm Calm - N/A   Clear
12:35 PM 15.8 °F - 14.0 °F 93% 30.03 in 5.0 mi Calm Calm - N/A   Clear
12:53 PM 17.6 °F - 15.8 °F 93% 30.03 in 7.0 mi Calm Calm - N/A   Clear
1:15 PM 19.4 °F - 17.6 °F 93% 30.02 in 10.0 mi Calm Calm - N/A   Clear
1:34 PM 19.4 °F - 19.4 °F 100% 30.02 in 10.0 mi Calm Calm - N/A   Clear
1:53 PM 21.2 °F - 19.4 °F 93% 30.01 in 10.0 mi Calm Calm - N/A   Clear
2:15 PM 23.0 °F - 19.4 °F 86% 30.01 in 10.0 mi Calm Calm - N/A   Clear
2:35 PM 24.8 °F - 17.6 °F 74% 30.01 in 10.0 mi Calm Calm - N/A   Clear
2:53 PM 24.8 °F 17.9 °F 17.6 °F 74% 30.01 in 10.0 mi South 5.8 mph - N/A   Clear
3:14 PM 24.8 °F 19.1 °F 15.8 °F 69% 30.00 in 10.0 mi South 4.6 mph - N/A   Clear
3:35 PM 24.8 °F 20.5 °F 17.6 °F 74% 30.00 in 10.0 mi South 3.5 mph - N/A   Clear
3:52 PM 24.8 °F 17.9 °F 15.8 °F 69% 30.00 in 10.0 mi SSE 5.8 mph - N/A   Clear
4:15 PM 24.8 °F 19.1 °F 15.8 °F 69% 30.00 in 10.0 mi South 4.6 mph - N/A   Clear
4:35 PM 24.8 °F 19.1 °F 15.8 °F 69% 30.00 in 10.0 mi South 4.6 mph - N/A   Clear
4:52 PM 24.8 °F 17.9 °F 15.8 °F 69% 30.00 in 10.0 mi SSE 5.8 mph - N/A   Clear
5:15 PM 23.0 °F 17.0 °F 15.8 °F 74% 30.00 in 10.0 mi South 4.6 mph - N/A   Clear
5:35 PM 23.0 °F 18.4 °F 15.8 °F 74% 30.01 in 10.0 mi SSW 3.5 mph - N/A   Clear
5:53 PM 21.2 °F - 14.0 °F 74% 30.02 in 10.0 mi Calm Calm - N/A   Clear
6:15 PM 21.2 °F - 14.0 °F 74% 30.02 in 10.0 mi Calm Calm - N/A   Clear
6:35 PM 17.6 °F - 12.2 °F 79% 30.02 in 10.0 mi Calm Calm - N/A   Clear
6:52 PM 17.6 °F - 12.2 °F 79% 30.02 in 10.0 mi Calm Calm - N/A   Clear
7:15 PM 15.8 °F 10.2 °F 10.4 °F 79% 30.02 in 10.0 mi SSE 3.5 mph - N/A   Clear
7:34 PM 14.0 °F - 10.4 °F 86% 30.02 in 10.0 mi Calm Calm - N/A   Clear
7:52 PM 15.8 °F - 10.4 °F 79% 30.03 in 10.0 mi Calm Calm - N/A   Clear
8:14 PM 14.0 °F - 10.4 °F 86% 30.04 in 10.0 mi Calm Calm - N/A   Clear
8:35 PM 12.2 °F 6.1 °F 10.4 °F 92% 30.04 in 10.0 mi WSW 3.5 mph - N/A   Clear
8:53 PM 12.2 °F - 10.4 °F 92% 30.04 in 10.0 mi Calm Calm - N/A   Clear
9:14 PM 10.4 °F 4.0 °F 8.6 °F 92% 30.03 in 10.0 mi SSW 3.5 mph - N/A   Clear
9:35 PM 8.6 °F - 6.8 °F 92% 30.04 in 10.0 mi Calm Calm - N/A   Clear
9:53 PM 10.4 °F - 8.6 °F 92% 30.04 in 10.0 mi Calm Calm - N/A   Clear
10:15 PM 10.4 °F - 8.6 °F 92% 30.04 in 10.0 mi Calm Calm - N/A   Clear
10:35 PM 8.6 °F - 6.8 °F 92% 30.03 in 10.0 mi Calm Calm - N/A   Clear
10:52 PM 10.4 °F - 8.6 °F 92% 30.03 in 10.0 mi Calm Calm - N/A   Clear
11:15 PM 8.6 °F - 5.0 °F 85% 30.03 in 10.0 mi Calm Calm - N/A   Clear
11:35 PM 10.4 °F 4.0 °F 6.8 °F 85% 30.03 in 10.0 mi South 3.5 mph - N/A   Clear
11:53 PM 10.4 °F 4.0 °F 6.8 °F 85% 30.03 in 10.0 mi South 3.5 mph - N/A   Clear